Showing default

RADIO ROSTO, 23439

Orbit data source: Space-Track

RADIO ROSTO, 23439 is a payload satellite owned by NPO PM (CIS) in LEO that was launched on Mon, 26 Dec 1994 UTC via an ROKOT launch vehicle from the Tyuratam Missile And Space Complex (TTMTR). Payload-class satellites include a variety of spacecraft equipped with specific instruments for various scientific and technological missions. These include communications satellites like Starlink; space stations such as the ISS; scientific satellites like the Hubble; Earth observation satellites from companies like Planet Labs, Umbra, and HawkEye 360; GPS; miniature CubeSats for education and research; and military/defense satellites.

Loading next visibility...
Identifier
23439, 1994-085A
Orbit
LEO
Country
Flag of CISCIS
Related business
Manufacturer
NPO PM
Mission
Partially operational Civil Communications
Bus & Motor
STRELA-1M, Unknown motor
Mass
70 kg wet, 70 kg dry
Launch date (UTC)
1994-12-26 (31 years ago)
Launch vehicle
ROKOT
Launch site
Tyuratam Missile And Space Complex (TTMTR)
Object type
Payload
Rocket body
Debris
Shape & HBR
Sphere, Unknown HBR
Radar Cross Section
0.785 m², Medium (>0.1 m² and < 1m²)

Expand to show TLE details & history
Last TLE update: 8 hours ago

TLE from 8 hours ago
0 RADIO ROSTO
1 23439U 94085A   26062.48729517 -.00000012  00000-0  87855-3 0  9996
2 23439  64.8146 114.1652 0152441  23.1978 337.5733 11.27583800283985
Epoch: 2026-03-03T11:41Z
TLE epoch observation values (Epoch: 2026-03-03T11:41:42.302Z)
Latitude
-0.00008°
Longitude
137.47326°
Altitude
1,905.893 km
Speed
6.987 km/s
True Right ascension
07h 36m 39s
True Declination
0° 00' 00"
Sunlit
Object was in partial shadow at epoch
Visualization orbit readout
Latitude
Unknown
Longitude
Unknown
Altitude
Unknown
Speed
Unknown
Apparent Right ascension
Unknown
Apparent Declination
Unknown
Sunlit
N/A
Visualization observer readout
Local Sidereal Time
23:33:11
Azimuth
Unknown
Elevation
Unknown
Doppler factor
Unknown
Orbital elements
Apogee altitude
2,149.161 km
Perigee altitude
1,893.083 km
Semi-major axis
8,399.259 km
Eccentricity
0.01524
Inclination
64.8146°
RAAN
114.1652°
Arg. of periapsis
23.1978°
True anomaly
336.89495°
Mean anomaly
337.5733°
Eccentric anomaly
337.23533°
Mean motion
2.81956 °/min
Orbital period
127.68 mins
BSTAR
0.00087855
Loading maneuver chart data...
Computing Atmospheric mass density...
Loading historical data...
Loading historical data...
Loading historical data...
Loading historical data...
Loading historical data...
Loading historical data...
Loading historical data...

Documentation

Showing up to 5 results
|